Location: site
(53.0000°N, 23.0500°E)
Time: 17:22:25
(UTC+01:00)

SAOCOM 1-A - Pass Details

Date: 19 January 2020
Orbit: 621 x 623 km, 97.9° (Epoch: 25 February)

Event Time Altitude Azimuth Distance (km) Brightness Sun altitude
Exits shadow 17:50:34 16° 21° (NNE) 1,659 ? -17.9°
Maximum altitude 17:54:03 69° 103° (ESE) 672 ? -18.4°
Drops below altitude 10° 17:58:22 10° 187° (S) 1,989 ? -19.1°
Sets 18:00:33 0° 189° (S) 2,891 ? -19.4°
